Location: Peebles
(55.6412°N, 3.1714°W)
Time: 02:03:38
(UTC+01:00)

deb r/b Ablestar - Pass Details

Date: 04 July 2022
Orbit: 859 x 1154 km, 67.2° (Epoch: 13 August)

Event Time Altitude Azimuth Distance (km) Brightness Sun altitude
Rises 22:47:00 0° 303° (WNW) 3,966 ? -5.3°
Reaches altitude 10° 22:49:54 10° 312° (NW) 3,032 ? -5.5°
Maximum altitude 22:56:40 39° 20° (NNE) 1,659 ? -6.0°
Drops below altitude 10° 23:03:29 10° 88° (E) 3,050 ? -6.5°
Sets 23:06:23 0° 96° (E) 3,992 ? -6.8°
